PDT,Max TemperatureF,Mean TemperatureF,Min TemperatureF,Max Dew PointF,MeanDew PointF,Min DewpointF,Max Humidity, Mean Humidity, Min Humidity, Max Sea Level PressureIn, Mean Sea Level PressureIn, Min Sea Level PressureIn, Max VisibilityMiles, Mean VisibilityMiles, Min VisibilityMiles, Max Wind SpeedMPH, Mean Wind SpeedMPH, Max Gust SpeedMPH,PrecipitationIn, CloudCover, Events, WindDirDegrees
2012-10-1,96,78,60,50,46,39,68,34,15,30.00,29.96,29.88,10,10,10,10,2,,0.00,0,,275
2012-10-2,98,79,60,52,46,37,68,30,14,29.88,29.83,29.78,10,10,10,12,2,,0.00,0,,290
2012-10-3,93,78,62,61,53,45,73,45,19,29.96,29.89,29.85,10,10,10,14,5,,0.00,0,,274
2012-10-4,78,68,59,57,56,55,88,65,44,30.14,30.10,30.05,10,10,10,15,7,,0.00,0,,270
2012-10-5,73,66,59,57,55,54,88,69,50,30.17,30.13,30.07,10,10,10,16,5,,0.00,4,,290
2012-10-6,73,65,57,57,52,50,88,60,44,30.08,30.02,29.97,10,10,10,16,6,,0.00,1,,280
2012-10-7,75,64,53,54,51,48,82,62,41,30.03,29.99,29.94,10,10,10,14,3,,0.00,1,,278
2012-10-8,73,62,51,54,51,48,94,63,41,30.05,30.03,30.00,10,10,10,15,5,,0.00,1,,304
2012-10-9,75,64,53,55,52,48,88,62,38,30.03,29.98,29.94,10,10,10,16,6,,0.00,3,,274
2012-10-10,71,64,57,55,53,48,94,68,46,29.96,29.93,29.89,10,10,10,14,6,,0.00,5,Rain-Thunderstorm,268
2012-10-11,60,60,59,54,53,52,82,76,72,29.95,29.93,29.91,10,10,10,9,2,,0.00,8,,130
2012-10-12,66,62,59,52,51,50,77,68,60,30.21,30.14,30.05,10,10,10,9,4,,0.00,8,,283
2012-10-13,73,62,50,57,53,48,94,66,47,30.32,30.24,30.18,10,10,10,14,4,,0.00,1,,277
2012-10-14,73,65,57,59,58,55,100,82,61,30.22,30.15,30.08,10,6,0,9,3,,0.00,3,Fog,288
2012-10-15,78,68,57,59,59,57,100,75,50,30.10,30.03,29.97,10,7,0,14,3,,0.00,3,Fog,288
2012-10-16,80,70,59,64,61,55,94,71,54,30.01,29.95,29.89,10,10,10,21,5,,0.00,0,,280
2012-10-17,87,70,53,54,40,32,94,35,14,29.91,29.86,29.82,10,10,10,18,4,,0.00,0,,289
2012-10-18,91,72,53,64,48,36,69,42,17,30.02,29.96,29.92,10,10,10,14,3,,0.00,0,,244
2012-10-19,77,68,60,64,62,59,94,77,61,30.06,29.98,29.93,10,9,3,14,5,,0.00,1,,279
2012-10-20,71,65,57,57,53,46,88,66,49,29.92,29.88,29.84,10,8,2,18,6,,0.00,3,,289
2012-10-21,66,57,48,48,44,41,82,58,40,29.96,29.91,29.88,10,10,10,15,4,,0.00,6,,284
2012-10-22,64,60,55,54,48,41,88,62,42,29.89,29.86,29.80,10,8,4,17,14,24,0.00,6,Rain,226
2012-10-23,66,60,53,52,45,39,94,56,40,30.06,30.03,30.00,10,10,10,9,5,,0.00,5,,221
2012-10-24,68,60,51,50,48,43,88,64,40,30.18,30.14,30.08,10,10,10,12,8,,0.00,6,,140
2012-10-25,68,62,57,54,50,45,88,67,52,30.25,30.22,30.18,10,9,4,15,7,,0.00,5,Rain,294
2012-10-26,75,62,48,46,43,37,87,49,27,30.23,30.16,30.10,10,10,10,15,4,,0.00,0,,287
2012-10-27,78,64,51,57,53,46,82,58,39,30.08,30.02,29.96,10,10,10,14,3,,0.00,0,,297
2012-10-28,80,66,53,59,55,52,100,65,42,30.01,29.98,29.94,20,11,10,12,2,,0.00,0,,277
2012-10-29,75,66,57,57,57,55,100,75,53,30.12,30.08,30.03,10,8,3,12,2,,0.00,2,,277
2012-10-30,73,65,57,57,57,55,100,84,53,30.11,30.03,29.97,10,6,0,12,3,,0.00,4,Fog,274
2012-10-31,66,62,57,55,54,54,88,74,68,30.05,30.01,29.99,10,9,4,12,7,,0.00,7,,146